Terminal Aerodrome Forecast
Issued by NWS

Home | Current Version | Previous Version | Text Only | Print | Product List | Glossary Off
Versions: 1 2 3 4 5 6 7 8 9 10 11 12 13 14 15 16 17 18 19 20 21 22 23 24 25 26 27 28

000
FTUS43 KABR 031323 AAA
TAFPIR
TAF AMD
KPIR 031323Z 0313/0412 35015KT P6SM OVC014
     FM031800 01011KT P6SM SCT030
     FM032100 03009KT P6SM BKN250=

USA.gov is the U.S. government's official web portal to all federal, state and local government web resources and services.